TimeCST,TemperatureF,Dew PointF,Humidity,Sea Level PressureIn,VisibilityMPH,Wind Direction,Wind SpeedMPH,Gust SpeedMPH,PrecipitationIn,Events,Conditions,WindDirDegrees,DateUTC
12:56 AM,29.1,24.1,81,29.92,10.0,West,17.3,24.2,N/A,,Overcast,260,2012-11-12 06:56:00
1:56 AM,28.0,21.0,75,29.92,10.0,West,12.7,-,N/A,,Overcast,270,2012-11-12 07:56:00
2:56 AM,27.1,20.1,75,29.95,10.0,West,19.6,26.5,N/A,,Overcast,280,2012-11-12 08:56:00
3:56 AM,26.1,18.1,72,29.96,10.0,West,18.4,25.3,N/A,,Overcast,280,2012-11-12 09:56:00
4:56 AM,26.1,18.1,72,29.96,10.0,WSW,17.3,-,N/A,,Overcast,250,2012-11-12 10:56:00
5:56 AM,26.1,18.1,72,29.98,10.0,WSW,9.2,-,N/A,,Overcast,250,2012-11-12 11:56:00
6:56 AM,24.1,15.1,69,30.00,10.0,West,15.0,23.0,N/A,,Overcast,260,2012-11-12 12:56:00
7:56 AM,24.1,15.1,69,30.01,10.0,West,15.0,-,0.00,,Overcast,270,2012-11-12 13:56:00
8:56 AM,24.1,14.0,65,30.02,10.0,West,16.1,-,0.00,,Overcast,270,2012-11-12 14:56:00
9:03 AM,24.8,15.8,69,30.00,10.0,West,12.7,-,N/A,,Overcast,260,2012-11-12 15:03:00
9:13 AM,24.8,14.0,64,30.00,10.0,West,16.1,24.2,N/A,,Overcast,270,2012-11-12 15:13:00
9:56 AM,25.2,15.1,66,30.03,10.0,West,17.3,-,0.00,,Overcast,260,2012-11-12 15:56:00
10:56 AM,26.1,14.0,60,30.03,10.0,West,20.7,24.2,0.00,,Overcast,270,2012-11-12 16:56:00
11:56 AM,26.1,14.0,60,30.02,10.0,West,18.4,-,0.00,,Overcast,270,2012-11-12 17:56:00
12:56 PM,25.2,15.1,66,30.03,10.0,WSW,17.3,24.2,0.00,Snow,Light Snow,250,2012-11-12 18:56:00
1:56 PM,26.1,16.2,66,30.05,6.0,West,15.0,21.9,0.00,,Mostly Cloudy,260,2012-11-12 19:56:00
2:56 PM,26.1,16.2,66,30.06,10.0,WSW,17.3,-,0.00,,Mostly Cloudy,250,2012-11-12 20:56:00
3:56 PM,25.2,19.0,78,30.10,2.0,WSW,13.8,-,0.00,Snow,Light Snow,250,2012-11-12 21:56:00
4:12 PM,24.8,19.4,80,30.08,10.0,WSW,10.4,-,0.00,Snow,Light Snow,250,2012-11-12 22:12:00
4:19 PM,24.8,19.4,80,30.08,9.0,WSW,12.7,-,0.00,Snow,Light Snow,250,2012-11-12 22:19:00
4:31 PM,24.8,19.4,80,30.09,2.5,West,10.4,-,0.00,Snow,Light Snow,260,2012-11-12 22:31:00
4:39 PM,24.8,19.4,80,30.09,9.0,West,11.5,-,0.00,Snow,Light Snow,260,2012-11-12 22:39:00
4:56 PM,25.2,18.1,75,30.13,10.0,West,11.5,-,0.00,,Overcast,260,2012-11-12 22:56:00
5:56 PM,26.1,15.1,63,30.16,10.0,West,15.0,-,0.00,,Overcast,260,2012-11-12 23:56:00
6:56 PM,25.2,16.2,69,30.19,10.0,West,12.7,20.7,0.00,,Overcast,270,2012-11-13 00:56:00
7:56 PM,25.2,16.2,69,30.22,10.0,West,9.2,-,0.00,Snow,Light Snow,280,2012-11-13 01:56:00
8:56 PM,25.2,16.2,69,30.25,10.0,West,8.1,-,0.00,,Overcast,270,2012-11-13 02:56:00
9:56 PM,25.2,13.1,60,30.27,10.0,WNW,11.5,-,0.00,,Overcast,290,2012-11-13 03:56:00
10:56 PM,25.2,14.0,63,30.29,10.0,West,12.7,-,0.00,,Overcast,280,2012-11-13 04:56:00
11:56 PM,25.2,14.0,63,30.32,10.0,WNW,10.4,-,N/A,,Overcast,290,2012-11-13 05:56:00